Weather observations for the past three days for
Mount Sterling-Montgomery County Airport
Metric (Imperial)
Date Time (edt) Wind (kph) Vis. (km) Weather Sky Cond. Temperature (ºC) Relative Humidity Wind Chill (°C) Heat Index (°C) Pressure Precipitation (cm)
Air Dwpt 6 hour altimeter (cm) sea level (mb) 1 hr 3 hr 6 hr
Max. Min.
04 02:15 Calm 16.09 Overcast SCT090 OVC110 12 3 54% 76.15 0.0
04 01:55 Calm 16.09 Mostly Cloudy SCT090 BKN120 11 3 58% 76.15 0.0
04 01:35 Calm 16.09 Mostly Cloudy SCT090 BKN110 11 3 58% 76.17 0.0
04 01:15 Calm 16.09 Mostly Cloudy BKN110 11 3 58% 76.17 0.0
04 00:55 Calm 16.09 Partly Cloudy SCT100 SCT120 12 3 54% 76.17 0.0
04 00:35 Calm 16.09 Mostly Cloudy BKN100 12 3 54% 76.2 0.0
04 00:15 Calm 16.09 Overcast SCT070 OVC100 12 3 54% 76.2 0.0
03 23:55 Calm 16.09 Overcast SCT080 OVC110 13 3 51% 76.2 0.0
03 23:35 Calm 16.09 Mostly Cloudy BKN110 12 3 54% 76.23 0.0
03 23:15 Calm 16.09 Mostly Cloudy BKN120 12 3 54% 76.23 0.0
03 22:55 Calm 16.09 Mostly Cloudy BKN120 12 3 54% 76.25 0.0
03 22:35 Calm 16.09 Partly Cloudy SCT120 13 2 47% 76.25 0.0
03 22:15 Calm 16.09 Partly Cloudy SCT120 12 2 51% 76.23 0.0
03 21:55 Calm 16.09 Mostly Cloudy BKN120 12 2 51% 76.23 0.0
03 21:35 Calm 16.09 Partly Cloudy SCT120 13 1 44% 76.2 0.0
03 21:15 Calm 16.09 Fair CLR 13 1 44% 76.17 0.0
03 20:55 Calm 16.09 Fair CLR 14 1 41% 76.15 0.0
03 20:35 Calm 16.09 Fair CLR 13 1 44% 76.17 0.0
03 20:15 Calm 16.09 Fair CLR 15 1 39% 76.15 0.0
03 19:55 Calm 16.09 Fair CLR 15 0 36% 76.2 0.0
03 19:35 Calm 16.09 Fair CLR 15 0 36% 76.2 0.0
03 19:15 Calm 16.09 Fair CLR 15 1 39% 76.2 0.0
03 18:55 SW 9 16.09 Fair CLR 16 0 34% 76.23 0.0
03 18:35 SW 19 G 28 16.09 Fair CLR 17 0 32% 76.23 0.0
03 18:15 W 15 G 28 16.09 Fair CLR 16 0 34% 76.25 0.0
03 17:55 W 13 16.09 Fair CLR 17 0 32% 76.25 0.0
03 17:35 W 22 16.09 Fair CLR 16 0 34% 76.28 0.0
03 17:15 SW 15 G 28 16.09 Fair CLR 16 0 34% 76.25 0.0
03 16:55 SW 17 G 28 16.09 Fair CLR 16 -1 31% 76.3 0.0
03 16:35 Calm 16.09 Fair CLR 16 0 34% 76.33 0.0
03 16:15 W 20 16.09 Fair CLR 16 0 34% 76.35 0.0
03 15:55 W 11 G 30 16.09 Fair CLR 16 0 34% 76.38 0.0
03 15:35 W 9 16.09 Fair CLR 16 -2 29% 76.4 0.0
03 14:55 SW 17 G 35 16.09 Fair CLR 16 -1 31% 76.43 0.0
03 14:35 S 13 16.09 Fair CLR 16 -1 31% 76.45 0.0
03 14:15 S 9 16.09 Fair CLR 15 -1 34% 76.48 0.0
03 13:55 SW 13 16.09 Fair CLR 15 0 36% 76.5 0.0
03 13:35 Calm 16.09 Fair CLR 15 0 36% 76.53 0.0
03 13:15 Calm 16.09 Fair CLR 15 -1 34% 76.56 0.0
03 12:55 Calm 16.09 Fair CLR 13 -2 36% 76.58 0.0
03 12:35 S 17 16.09 Fair CLR 14 -1 36% 76.58 0.0
03 12:15 Calm 16.09 Fair CLR 13 -2 36% 76.63 0.0
03 11:55 Calm 16.09 Fair CLR 13 -1 38% 76.63 0.0
03 11:35 Calm 16.09 Fair CLR 12 -2 38% 76.66 0.0
03 11:15 SW 11 16.09 Fair CLR 12 -1 41% 76.66 0.0
03 10:55 Calm 16.09 Fair CLR 12 -1 41% 76.66 0.0
03 10:35 Calm 16.09 Fair CLR 11 0 47% 76.66 0.0
03 10:15 Calm 16.09 Fair CLR 10 0 50% 76.63 0.0
03 09:55 Calm 16.09 Fair CLR 10 1 54% 76.63 0.0
03 09:35 Calm 16.09 Fair CLR 9 0 54% 76.66 0.0
03 09:15 Calm 16.09 Fair CLR 8 0 57% 76.63 0.0
03 08:55 Calm 16.09 Fair CLR 6 1 71% 76.66 0.0
03 08:35 Calm 16.09 Fair CLR 5 0 70% 76.63 0.0
03 08:15 Calm 16.09 Fair CLR 4 0 75% 76.63 0.0
03 07:55 Calm 16.09 Fair CLR 3 0 81% 76.61 0.0
03 07:35 Calm 16.09 Fair CLR 2 0 87% 76.61 0.0
03 07:15 Calm 16.09 Fair CLR 1 0 93% 76.58 0.0
03 06:55 Calm 16.09 Fair CLR 1 0 93% 76.56 0.0
03 06:35 Calm 16.09 Fair CLR 1 0 93% 76.56 0.0
03 06:15 Calm 16.09 Fair CLR 1 0 93% 76.53 0.0
03 05:55 Calm 16.09 Fair CLR 0 0 100% 76.53 0.0
03 05:35 Calm 16.09 Fair CLR 0 0 100% 76.53 0.0
03 05:15 Calm 16.09 Fair CLR 0 -1 93% 76.53 0.0
03 04:55 Calm 16.09 Fair CLR 0 0 100% 76.5 0.0
03 04:35 Calm 16.09 Fair CLR 0 0 100% 76.5 0.0
03 04:15 Calm 16.09 Fair CLR 0 0 100% 76.5 0.0
03 03:55 Calm 16.09 Fair CLR 0 0 100% 76.5 0.0
03 03:35 Calm 16.09 Fair CLR 0 0 100% 76.5 0.0
03 03:15 Calm 16.09 NULL NULL 1 0 93% 76.5 0.0
03 02:55 Calm 16.09 Fair CLR 1 0 93% 76.5 0.0
03 02:35 Calm 16.09 Fair CLR 1 0 93% 76.48 0.0
03 02:15 Calm 16.09 Fair CLR 2 0 87% 76.5 0.0
03 01:55 Calm 16.09 Fair CLR 2 0 87% 76.5 0.0
03 01:35 Calm 16.09 Fair CLR 2 0 87% 76.5 0.0
03 01:15 Calm 16.09 Fair CLR 4 0 75% 76.5 0.0
03 00:55 Calm 16.09 Fair CLR 5 0 70% 76.5 0.0
03 00:35 Calm 16.09 Partly Cloudy SCT070 6 0 66% 76.5 0.0
03 00:15 Calm 16.09 Overcast OVC070 6 0 66% 76.5 0.0
02 23:55 Calm 16.09 Mostly Cloudy BKN070 6 0 66% 76.5 0.0
02 23:35 Calm 16.09 Mostly Cloudy BKN070 6 0 66% 76.48 0.0
02 23:15 Calm 16.09 Partly Cloudy SCT070 7 0 61% 76.48 0.0
02 22:55 Calm 16.09 Fair CLR 6 0 66% 76.45 0.0
02 22:35 Calm 16.09 Partly Cloudy SCT080 7 0 61% 76.43 0.0
02 22:15 Calm 16.09 Mostly Cloudy BKN080 8 1 62% 76.43 0.0
02 21:55 Calm 16.09 Overcast OVC080 8 1 62% 76.4 0.0
02 21:35 Calm 16.09 Overcast OVC080 8 2 66% 76.4 0.0
02 21:15 Calm 16.09 Mostly Cloudy SCT070 BKN080 8 1 62% 76.38 0.0
02 20:55 Calm 16.09 Mostly Cloudy BKN080 9 1 58% 76.35 0.0
02 20:35 Calm 16.09 Overcast OVC080 10 0 50% 76.35 0.0
02 20:15 Calm 16.09 Overcast SCT070 OVC090 10 0 50% 76.33 0.0
02 19:55 Calm 16.09 Mostly Cloudy BKN090 11 0 47% 76.3 0.0
02 19:35 Calm 16.09 Mostly Cloudy BKN090 11 0 47% 76.3 0.0
02 19:15 N 9 16.09 Overcast OVC090 11 0 47% 76.3 0.0
02 18:55 NW 11 16.09 Overcast OVC090 12 0 44% 76.3 0.0
02 18:35 NW 13 16.09 Overcast OVC090 12 0 44% 76.3 0.0
02 18:15 Calm 16.09 Overcast SCT055 SCT065 OVC090 12 0 44% 76.3 0.0
02 17:55 Calm 16.09 Overcast SCT055 SCT065 OVC090 12 0 44% 76.3 0.0
02 17:35 N 11 16.09 Overcast OVC090 12 0 44% 76.3 0.0
02 17:15 N 13 16.09 Overcast SCT050 BKN075 OVC090 12 0 44% 76.3 0.0
02 16:55 N 15 16.09 Overcast OVC050 11 0 47% 76.3 0.0
02 16:35 Calm 16.09 Overcast BKN050 OVC070 11 0 47% 76.3 0.0
02 16:15 N 11 16.09 Overcast SCT060 BKN070 OVC090 13 1 44% 76.3 0.0
02 15:55 Calm 16.09 Overcast SCT060 SCT070 OVC090 12 0 44% 76.33 0.0
02 15:35 NW 7 16.09 Overcast SCT070 OVC090 13 0 41% 76.33 0.0
02 15:15 NW 13 16.09 Overcast SCT070 OVC090 12 0 44% 76.33 0.0
02 14:55 Calm 16.09 Overcast SCT070 OVC090 12 0 44% 76.33 0.0
02 14:35 Calm 16.09 Overcast BKN070 OVC080 12 0 44% 76.35 0.0
02 14:15 NW 13 16.09 Mostly Cloudy SCT070 BKN080 12 0 44% 76.35 0.0
02 13:55 Calm 16.09 Overcast SCT050 BKN070 OVC080 12 0 44% 76.35 0.0
02 13:35 Calm 16.09 Overcast BKN050 OVC070 12 0 44% 76.35 0.0
02 13:15 N 13 16.09 Mostly Cloudy SCT060 BKN065 BKN075 12 0 44% 76.35 0.0
02 12:55 Calm 16.09 Mostly Cloudy SCT049 BKN060 13 1 44% 76.38 0.0
02 12:35 Calm 16.09 Mostly Cloudy BKN049 BKN060 BKN070 11 0 47% 76.38 0.0
02 12:15 Calm 16.09 Mostly Cloudy SCT049 BKN060 BKN075 12 1 47% 76.4 0.0
02 11:55 Calm 16.09 Overcast BKN049 BKN060 OVC075 12 1 47% 76.4 0.0
02 11:35 NW 13 16.09 Partly Cloudy SCT044 SCT050 12 1 47% 76.4 0.0
02 11:15 Calm 16.09 Fair CLR 11 1 50% 76.4 0.0
02 10:55 Calm 16.09 Fair CLR 11 0 47% 76.4 0.0
02 10:35 Calm 16.09 Fair CLR 10 0 50% 76.38 0.0
02 10:15 Calm 16.09 Fair CLR 10 0 50% 76.4 0.0
02 09:55 Calm 16.09 Fair CLR 10 1 54% 76.4 0.0
02 09:35 Calm 16.09 Fair CLR 9 0 54% 76.38 0.0
02 09:15 Calm 16.09 Fair CLR 8 3 71% 76.38 0.0
02 08:55 Calm 16.09 Fair CLR 7 3 76% 76.4 0.0
02 08:35 Calm 16.09 Fair CLR 6 3 81% 76.38 0.0
02 08:15 Calm 16.09 Fair CLR 5 3 87% 76.38 0.0
02 07:55 Calm 16.09 Fair CLR 4 3 93% 76.38 0.0
02 07:35 Calm 16.09 Fair CLR 2 2 100% 76.35 0.0
02 07:15 Calm 16.09 Fair CLR 1 1 100% 76.35 0.0
02 06:55 Calm 16.09 Fair CLR 1 1 100% 76.33 0.0
02 06:35 Calm 16.09 Fair CLR 1 1 100% 76.35 0.0
02 06:15 Calm 16.09 Fair CLR 2 1 93% 76.33 0.0
02 05:55 Calm 16.09 Fair CLR 2 2 100% 76.33 0.0
02 05:35 Calm 16.09 Fair CLR 2 1 93% 76.33 0.0
02 05:15 Calm 16.09 Fair CLR 2 1 93% 76.35 0.0
02 04:55 Calm 16.09 Fair CLR 2 1 93% 76.33 0.0
02 04:35 Calm 16.09 Fair CLR 2 2 100% 76.33 0.0
02 04:15 Calm 16.09 Fair CLR 2 2 100% 76.33 0.0
02 03:55 Calm 16.09 Fair CLR 2 2 100% 76.35 0.0
02 03:35 Calm 16.09 Fair CLR 2 2 100% 76.33 0.0
02 03:15 Calm 16.09 Fair CLR 2 2 100% 76.33 0.0
02 02:55 Calm 16.09 NULL NULL 2 1 93% 76.33 0.0
02 02:35 Calm 16.09 Fair CLR 2 2 100% 76.33 0.0
02 02:15 Calm 16.09 Fair CLR 2 2 100% 76.35 0.0
02 01:55 Calm 16.09 Fair CLR 3 2 93% 76.35 0.0
02 01:35 Calm 16.09 Fair CLR 3 2 93% 76.35 0.0
02 01:15 Calm 16.09 Fair CLR 3 2 93% 76.35 0.0
02 00:55 Calm 16.09 Fair CLR 4 2 87% 76.35 0.0
02 00:35 Calm 16.09 Fair CLR 5 3 87% 76.38 0.0
02 00:15 Calm 16.09 Fair CLR 5 2 81% 76.38 0.0
01 23:55 Calm 16.09 Fair CLR 5 3 87% 76.38 0.0
01 23:35 Calm 16.09 Fair CLR 5 2 81% 76.38 0.0
01 23:15 Calm 16.09 Fair CLR 6 2 76% 76.38 0.0
01 22:55 Calm 16.09 Fair CLR 7 3 76% 76.38 0.0
01 22:35 Calm 16.09 Fair CLR 7 2 71% 76.38 0.0
01 22:15 Calm 16.09 Fair CLR 8 2 66% 76.38 0.0
01 21:55 Calm 16.09 Fair CLR 9 2 62% 76.35 0.0
01 21:35 Calm 16.09 Fair CLR 9 2 62% 76.3 0.0
01 21:15 Calm 16.09 Partly Cloudy SCT080 10 2 58% 76.28 0.0
01 20:55 Calm 16.09 Partly Cloudy SCT080 10 2 58% 76.25 0.0
01 20:35 Calm 16.09 Partly Cloudy SCT080 11 2 54% 76.23 0.0
01 20:15 N 9 16.09 Partly Cloudy SCT080 11 2 54% 76.2 0.0
01 19:55 Calm 16.09 Partly Cloudy SCT080 12 2 51% 76.17 0.0
01 19:35 N 7 16.09 Partly Cloudy SCT080 12 3 54% 76.17 0.0
01 19:15 N 17 G 26 16.09 Partly Cloudy SCT046 SCT055 SCT080 13 3 51% 76.15 0.0
01 18:55 N 6 G 28 16.09 Partly Cloudy SCT080 13 3 51% 76.15 0.0
01 18:35 N 13 16.09 Partly Cloudy SCT050 SCT080 13 3 51% 76.15 0.0
01 18:15 N 17 G 30 16.09 Mostly Cloudy BKN050 BKN080 13 3 51% 76.15 0.0
01 17:55 N 13 16.09 Overcast BKN050 OVC065 13 3 51% 76.15 0.0
01 17:35 N 15 16.09 Overcast SCT050 BKN065 OVC080 13 3 51% 76.12 0.0
01 17:15 NW 6 16.09 Overcast OVC090 14 3 48% 76.12 0.0
01 16:55 NW 13 G 30 16.09 Mostly Cloudy BKN090 15 3 45% 76.1 0.0
01 16:35 NW 19 G 28 16.09 Mostly Cloudy SCT075 BKN090 15 5 51% 76.12 0.0
01 16:15 NW 7 G 28 16.09 Mostly Cloudy SCT049 SCT055 BKN075 14 5 55% 76.12 0.0
01 15:55 NW 20 G 31 16.09 Mostly Cloudy BKN047 BKN065 15 4 48% 76.12 0.0
01 15:35 W 22 16.09 Mostly Cloudy BKN042 BKN060 16 6 52% 76.1 0.0
01 15:15 NW 6 16.09 Partly Cloudy SCT045 SCT050 SCT065 15 5 51% 76.15 0.0
01 14:55 Calm 16.09 Overcast SCT042 BKN050 OVC060 12 4 58% 76.15 0.0
01 14:35 NW 6 16.09 Overcast OVC050 12 4 58% 76.15 0.0
01 13:55 NW 17 G 30 16.09 Overcast OVC050 12 6 67% 76.15 0.0
01 13:35 NW 11 G 33 16.09 Overcast OVC050 13 5 59% 76.15 0.0
01 13:15 NW 9 G 30 16.09 Overcast OVC050 14 5 55% 76.12 0.0
01 12:55 NW 19 G 35 16.09 Overcast BKN050 OVC065 14 4 51% 76.12 0.0
01 12:35 W 11 G 26 16.09 Overcast SCT050 BKN060 OVC070 15 4 48% 76.1 0.0
01 12:15 SW 7 16.09 Mostly Cloudy SCT050 BKN070 BKN090 15 5 51% 76.07 0.0
01 11:55 W 19 G 31 16.09 Mostly Cloudy SCT070 BKN090 16 4 45% 76.1 0.0
01 11:35 W 22 G 31 16.09 Overcast OVC090 16 5 48% 76.07 0.0
01 11:15 SW 15 G 26 16.09 Mostly Cloudy BKN100 16 5 48% 76.07 0.0
01 10:55 SW 17 16.09 Partly Cloudy SCT110 15 5 51% 76.07 0.0
01 10:35 SW 9 16.09 Partly Cloudy SCT120 14 5 55% 76.07 0.0
01 10:15 Calm 16.09 Fair CLR 13 4 55% 76.07 0.0
01 09:55 Calm 16.09 Partly Cloudy SCT120 12 5 63% 76.1 0.0
01 09:35 Calm 16.09 Mostly Cloudy BKN110 12 4 58% 76.1 0.0
01 09:15 Calm 16.09 Partly Cloudy SCT110 11 4 62% 76.1 0.0
01 08:55 S 11 16.09 Partly Cloudy SCT110 11 4 62% 76.1 0.0
01 08:35 Calm 16.09 Fair CLR 10 4 67% 76.1 0.0
01 08:15 Calm 16.09 Fair CLR 8 5 82% 76.1 0.0
01 07:55 Calm 16.09 Fair CLR 6 5 93% 76.1 0.0
01 07:35 Calm 16.09 Fair CLR 5 4 93% 76.1 0.0
01 07:15 Calm 16.09 Fair CLR 4 3 93% 76.1 0.0
01 06:55 Calm 16.09 Fair CLR 4 3 93% 76.1 0.0
01 06:35 Calm 16.09 Fair CLR 4 3 93% 76.12 0.0
01 06:15 Calm 16.09 Fair CLR 5 3 87% 76.12 0.0
01 05:55 Calm 16.09 Fair CLR 4 3 93% 76.12 0.0
01 05:35 Calm 16.09 Fair CLR 5 3 87% 76.15 0.0
01 05:15 Calm 16.09 Fair CLR 5 3 87% 76.15 0.0
01 04:55 Calm 16.09 Fair CLR 5 3 87% 76.17 0.0
01 04:35 Calm 16.09 Fair CLR 5 3 87% 76.17 0.0
01 04:15 Calm 16.09 Fair CLR 5 4 93% 76.2 0.0
01 03:55 Calm 16.09 Fair CLR 4 3 93% 76.2 0.0
01 03:35 Calm 16.09 Fair CLR 4 3 93% 76.17 0.0
01 03:15 Calm 16.09 Fair CLR 5 4 93% 76.2 0.0
01 02:55 Calm 16.09 Fair CLR 5 4 93% 76.2 0.0
01 02:35 Calm 16.09 Fair CLR 5 4 93% 76.2 0.0
Date Time (edt) Wind (kph) Vis. (km) Weather Sky Cond. Air Dwpt Max. Min. Relative Humidity Wind Chill (°C) Heat Index (°C) altimeter (cm) sea level (mb) 1 hr 3 hr 6 hr
6 hour
Temperature (ºC) Pressure Precipitation (cm)